Weather in Otradnoye

Russia / Bryansk Oblast     53°19′39″N   34°10′23″E
temp.,
°C
wind,
m/s
gust,
m/s
humid.,
%
clouds,
%
prec.,
mm/h
press.,
hPa
HPBL,
m
15 august, mon
mon1500:00+17e39915 0.0 1018158
03:00+16ene388915 0.0 1018134
06:00+15ene398797 0.0 1018171
09:00+18ene3979100 0.0 1018262
12:00+25e5748100 0.0 1017731
15:00+28e564392 0.0 10161254
18:00+27e4752100 0.0 1016776
21:00+20ene31074100 0.0 1017179
16 august, tue
tue1600:00+20ene41264100 0.0 1016278
03:00+19ene41160100 0.0 1016243
06:00+19ene51355100 0.0 1015340
09:00+22e61452100 0.0 1016472
12:00+25ese6114395 0.0 1016730
15:00+25e61147100 0.0 1016636
18:00+25e51149100 0.0 1016451
21:00+23e51250100 0.0 1016388
17 august, wed
wed1700:00+22ene41346100 0.0 1015330
03:00+20ene3105199 0.0 1014230
06:00+20ene4115597 0.0 1013262
09:00+20ene41061100 0.0 1014354
12:00+24ene3761100 0.0 1013277
15:00+29e5841100 0.0 10131168
18:00+23ene51057100 0.0 1013413
21:00+22ene51359100 0.0 1013410
18 august, thu
thu1800:00+19ene3969100 0.2 1013222
03:00+19ne4970100 0.2 1013196
06:00+20ene4106098 0.0 1014262
09:00+22ene5125478 0.0 1014393
12:00+28ene6836100 0.0 10141170
15:00+29ene783697 0.0 10131368
18:00+27ene6104318 0.0 1014948
21:00+21ne412536 0.0 1014297
19 august, fri
fri1900:00+19ne4116520 0.0 1014228
03:00+18ne4116523 0.0 1014242
06:00+17ne411698 0.0 1014247
09:00+22ene58585 0.0 1014428
12:00+27e694744 0.0 10141176
15:00+29e684398 0.0 10141741
18:00+27e585161 0.0 10141099
21:00+21ne413725 0.0 1014306